Location: Leuk
(46.3174°N, 7.6341°E)
Time: 18:42:51
(UTC+00:00)

Cosmos 2360 Rocket - Pass Details

Date: 09 March 2021
Orbit: 832 x 846 km, 71.0° (Epoch: 14 April)

Event Time Altitude Azimuth Distance (km) Brightness Sun altitude
Rises 02:08:44 0° 337° (NNW) 3,417 5.6 -37.2°
Reaches altitude 10° 02:11:20 10° 344° (NNW) 2,479 4.8 -36.9°
Enters shadow 02:12:25 16° 349° (NNW) 2,107 4.5 -36.7°
Exits shadow 02:22:44 - 129° (SE) 2,678 4.9 -35.3°
Sets 02:24:41 0° 134° (SE) 3,394 5.4 -35.1°
